KEPLER-21 (56218 NORAD) Tracking and Keplerian Element Data

This shows tracking and keplerian element data for the satellite.

Feedback or suggestion? Click here.




ElementValue
Catalog56218
NameKEPLER-21
Epoch Orbit2090
Epoch Day238.69455109
Epoch Year2023
RAAN132.4569
Inclination97.3912
Eccentricity0.0011178
Argument of Perigee121.1519
Mean Anonmoly239.0815
Mean Motion15.23208565
Decay Rate6.87E-05
L11 56218U 23054AS 23238.69455109 .00006870 00000+0 29280-3 0 9997
L22 56218 97.3912 132.4569 0011178 121.1519 239.0815 15.23208565 20909



Live tracking and technical data element details for KEPLER-21 (NORAD 56218). KEPLER-21 can be tracked NOW for your location showing map with azimuth and elevation plus other details from your city location.







IsCatalogInMostPopularTable: catalog: 56218, numindb: 9
Update: records affected: 1



GetName: 56218 KEPLER-21

Hit Count: updated at: Thu, 28 Sep 2023 05:23:08 GMT